WICT2: Wichita River At Wichita Falls, TX

                                SHEF ID:       WICT2     Wichita Rv at Wichita Falls, TX
STATION TYPE:
Regulating: Stage = 18.50, Flow = 5482

PRECIP STAGE RIV-FLOW WTR-TEMP CONDUCT BAT-LOAD
in ft cfs F umho/cm volt
Ccp-Rev Ccp-Rev Ccp-Rev Ccp-Rev Ccp-Rev Ccp-Rev
(America/Chicago)
04/21 00:00 ---- 2.29 50 67.48 2934 12.09
04/21 01:00 ---- 2.29 50 67.10 2910 12.02
04/21 02:00 ---- 2.29 50 66.78 2942 12.05
04/21 03:00 ---- 2.27 48 66.31 2922 12.04
04/21 04:00 ---- 2.28 49 65.80 2932 12.01
04/21 05:00 ---- 2.29 50 65.32 2964 11.98
04/21 06:00 ---- 2.29 50 64.85 3033 11.97
04/21 07:00 ---- 2.28 49 64.40 3079 11.94
04/21 08:00 ---- 2.30 51 63.99 3077 11.90
04/21 09:00 ---- 2.30 51 63.70 3050 11.90
04/21 10:00 ---- 2.30 51 63.59 3101 11.91
04/21 11:00 ---- 2.30 51 63.55 3120 11.94
04/21 12:00 ---- 2.29 50 63.66 3128 11.91
04/21 13:00 ---- 2.29 50 63.90 3168 12.12
04/21 14:00 ---- 2.28 49 64.20 3181 12.31
04/21 15:00 ---- 2.29 50 64.53 3179 12.34
04/21 16:00 ---- 2.29 50 64.85 3213 12.32
04/21 17:00 ---- 2.30 51 64.87 3266 12.24
04/21 18:00 ---- 2.29 50 64.92 3228 12.14
04/21 19:00 ---- 2.29 50 64.90 3199 12.04
04/21 20:00 ---- 2.30 51 64.85 3194 11.94
04/21 21:00 ---- 2.29 50 64.80 3196 11.94
04/21 22:00 ---- 2.29 50 64.74 3210 11.94
04/21 23:00 ---- 2.29 50 64.72 3282 11.88
Data processed at Wed 22Apr2026 04:58 GMT

NOTICE: If you are parsing this page

Please convert to using our Data API. Starting early 2026 we will be migrating to: https://water.usace.army.mil with modern pages rendered in JavaScript. When this migration completes you will no longer be able to scrape this page! CWMSDataAPI (CDA)

Timeseries IDs (TSIDs)

TSIDs used from left to right in the data table
WFAL.Precip-Inc.Total.1Hour.1Hour.Ccp-Rev
WFAL.Stage.Inst.1Hour.0.Ccp-Rev
WFAL.Flow.Inst.1Hour.0.Ccp-Rev
WFAL.Temp-Water.Inst.1Hour.0.Ccp-Rev
WFAL.Cond-Water.Inst.1Hour.0.Ccp-Rev
WFAL.Volt-Battery Load.Inst.1Hour.0.Ccp-Rev

                            

All information presented herein is the property of the government of the United States of America and may be revised or deleted at any time without prior notice. Dissemination of this information without the expressed written consent of the Public Affairs Office, Tulsa District U.S. Army Corps of Engineers is strictly prohibited. These data are gathered electronically and, as presented, have NOT undergone any form of quality control. These data are NOT guaranteed to be valid or correct.